Location: Pasarilla del Rebollar
(40.6790°N, 5.0062°W)
Time: 11:17:33
(UTC+00:00)

RESURS DK-1 - Pass Details

Date: 22 April 2026
Orbit: 523 x 530 km, 69.9° (Epoch: 20 May)

Event Time Altitude Azimuth Distance (km) Brightness Sun altitude
Rises 04:39:12 0° 343° (NNW) 2,672 5.9 -10.0°
Reaches altitude 10° 04:41:32 10° 354° (N) 1,780 5.2 -9.6°
Maximum altitude 04:45:09 33° 59° (ENE) 911 4.3 -9.0°
Drops below altitude 10° 04:48:44 10° 124° (SE) 1,772 5.4 -8.4°
Sets 04:51:04 0° 135° (SE) 2,658 6.1 -8.0°
